Flight Track Log - Related Links

Times and Time Zones

All times are in EDT time to prevent confusion due to time zone crossing. See the N789EX flight status page for this flight to view local times or setup timezone preferences in your user account.

Time Position Orientation Groundspeed Altitude Reporting Facility
EDT Latitude Longitude Course Direction KTS MPH feet Rate Location/Type
08:11PM 47.2667 -119.4003 295° West 224 258 4,300  Level Seattle Center
08:12PM 47.3014 -119.5036 296° West 260 299 7,800 3,098 Climbing Seattle Center
08:13PM 47.3342 -119.6006 297° West 263 303 10,600 1,248 Climbing Seattle Center
08:16PM 47.4226 -119.9440 295° West  Level FlightAware Approximate
08:18PM 47.6103 -120.4330 296° West 427 491 16,100  Level FlightAware ADS-B
08:19PM 47.6362 -120.5120 296° West 429 494 16,100  Level FlightAware ADS-B
08:19PM 47.6622 -120.6130 289° West 429 494 16,100 -226 Level FlightAware ADS-B
08:20PM 47.6705 -120.6590 283° West 428 493 15,900 -444 Descending FlightAware ADS-B
08:20PM 47.6742 -120.6900 279° West 430 495 15,900  Level FlightAware ADS-B
08:20PM 47.6822 -120.7780 278° West 430 495 15,900  Level FlightAware ADS-B
08:21PM 47.6899 -120.8660 277° West 428 493 15,900  Level FlightAware ADS-B
08:21PM 47.6972 -120.9520 277° West 396 456 15,900 -97 Level FlightAware ADS-B
08:22PM 47.7036 -121.0320 277° West 379 436 15,800 -1,053 Descending FlightAware ADS-B
08:22PM 47.7091 -121.0990 277° West 376 433 14,900 -1,929 Descending FlightAware ADS-B
08:23PM 47.7153 -121.1760 277° West 373 429 14,000 -1,800 Descending FlightAware ADS-B
08:23PM 47.7214 -121.2520 277° West 364 419 13,100 -1,770 Descending FlightAware ADS-B
08:24PM 47.7274 -121.3260 277° West 354 407 12,200 -1,279 Descending FlightAware ADS-B
08:24PM 47.7329 -121.3960 276° West 335 386 11,800 -712 Descending FlightAware ADS-B
08:25PM 47.7378 -121.4600 277° West 311 358 11,500 -529 Descending FlightAware ADS-B
08:25PM 47.7386 -121.4695 277° West 308 354 11,500 -414 Level FlightAware ADS-B
08:25PM 47.7426 -121.5200 277° West 290 334 11,300 -514 Descending FlightAware ADS-B
08:25PM 47.7441 -121.5398 276° West 284 327 11,200 -800 Descending FlightAware ADS-B (CYVR)
08:26PM 47.7470 -121.5780 277° West 278 320 10,900 -1,000 Descending FlightAware ADS-B
08:26PM 47.7494 -121.6088 277° West 274 315 10,600 -1,200 Descending FlightAware ADS-B
08:26PM 47.7506 -121.6240 277° West 273 314 10,400 -1,161 Descending FlightAware ADS-B
08:27PM 47.7524 -121.6467 277° West 271 312 10,000 -1,105 Descending FlightAware ADS-B
08:27PM 47.7561 -121.6946 277° West 273 314 9,700 -1,355 Descending FlightAware ADS-B
08:27PM 47.7583 -121.7240 276° West 274 315 9,300 -1,364 Descending FlightAware ADS-B
08:27PM 47.7592 -121.7356 276° West 273 314 9,200 -1,200 Descending FlightAware ADS-B
08:27PM 47.7605 -121.7530 276° West 272 313 9,000 -1,429 Descending FlightAware ADS-B
08:27PM 47.7620 -121.7740 276° West 270 311 8,700 -1,600 Descending FlightAware ADS-B
08:28PM 47.7625 -121.7810 276° West 270 311 8,600 -1,600 Descending FlightAware ADS-B
08:28PM 47.7641 -121.8020 276° West 267 307 8,300 -1,412 Descending FlightAware ADS-B
08:28PM 47.7647 -121.8101 276° West 265 305 8,200 -2,400 Descending FlightAware ADS-B
08:28PM 47.7661 -121.8290 276° West 263 303 7,700 -3,000 Descending FlightAware ADS-B
08:28PM 47.7664 -121.8370 272° West 263 303 7,500 -2,571 Descending FlightAware ADS-B
08:28PM 47.7663 -121.8420 268° West 263 303 7,400 -1,714 Descending FlightAware ADS-B
08:28PM 47.7657 -121.8490 261° West 262 302 7,300 -2,571 Descending FlightAware ADS-B
08:28PM 47.7647 -121.8550 256° West 263 303 7,100 -2,571 Descending FlightAware ADS-B
08:28PM 47.7633 -121.8610 250° West 263 303 7,000 -2,571 Descending FlightAware ADS-B
08:28PM 47.7620 -121.8650 245° Southwest 263 303 6,800 -3,000 Descending FlightAware ADS-B
08:28PM 47.7603 -121.8700 241° Southwest 264 304 6,700 -2,571 Descending FlightAware ADS-B
08:28PM 47.7573 -121.8770 236° Southwest 263 303 6,500 -2,250 Descending FlightAware ADS-B
08:29PM 47.7547 -121.8820 231° Southwest 265 305 6,400 -2,250 Descending FlightAware ADS-B
08:29PM 47.7508 -121.8880 224° Southwest 265 305 6,200 -3,600 Descending FlightAware ADS-B
08:29PM 47.7531 -121.8843 223° Southwest 265 305 6,100 -2,800 Descending FlightAware ADS-B
08:29PM 47.7371 -121.9060 222° Southwest 267 307 5,500 -2,800 Descending FlightAware ADS-B
08:29PM 47.7362 -121.9073 222° Southwest 267 307 5,400 -2,143 Descending FlightAware ADS-B
08:29PM 47.7248 -121.9230 223° Southwest 267 307 5,000 -1,895 Descending FlightAware ADS-B
08:29PM 47.7197 -121.9310 228° Southwest 268 308 4,800 -2,000 Descending FlightAware ADS-B
08:29PM 47.7169 -121.9366 235° Southwest 268 308 4,700 -2,400 Descending FlightAware ADS-B
08:29PM 47.7160 -121.9390 237° Southwest 268 308 4,600 -750 Descending FlightAware ADS-B
08:29PM 47.7150 -121.9417 246° West 267 307 4,600  Level FlightAware ADS-B
08:29PM 47.7128 -121.9510 254° West 265 305 4,600 -1,091 Level FlightAware ADS-B
08:30PM 47.7120 -121.9680 269° West 261 300 4,400 -1,000 Descending FlightAware ADS-B
08:30PM 47.7119 -121.9638 274° West 260 299 4,400 -857 Level FlightAware ADS-B
08:30PM 47.7128 -121.9820 275° West 259 298 4,300 -1,200 Descending FlightAware ADS-B
08:30PM 47.7148 -122.0042 278° West 260 299 4,000 -1,125 Descending FlightAware ADS-B
08:30PM 47.7154 -122.0090 278° West 260 299 4,000 -1,059 Level FlightAware ADS-B
08:30PM 47.7179 -122.0370 278° West 259 298 3,700 -947 Descending FlightAware ADS-B
08:30PM 47.7185 -122.0433 278° West 259 298 3,700 -750 Level FlightAware ADS-B
08:30PM 47.7205 -122.0660 277° West 257 296 3,500 -1,200 Descending FlightAware ADS-B
08:31PM 47.7215 -122.0770 277° West 256 295 3,300 -1,636 Descending FlightAware ADS-B
08:31PM 47.7221 -122.0850 277° West 256 295 3,200 -1,000 Descending FlightAware ADS-B
08:31PM 47.7243 -122.1100 277° West 255 293 3,000 -750 Descending FlightAware ADS-B
08:31PM 47.7243 -122.1097 277° West 255 293 3,000 -375 Level FlightAware ADS-B
08:31PM 47.7268 -122.1380 278° West 254 292 2,900 -300 Descending FlightAware ADS-B
08:31PM 47.7276 -122.1464 278° West 254 292 2,900  Level FlightAware ADS-B
08:31PM 47.7287 -122.1590 277° West 254 292 2,900 -600 Level FlightAware ADS-B
08:32PM 47.7298 -122.1720 277° West 252 290 2,700 -800 Descending FlightAware ADS-B
08:32PM 47.7310 -122.1850 277° West 252 290 2,700 -947 Level FlightAware ADS-B
08:32PM 47.7334 -122.2150 277° West 250 288 2,400 -1,000 Descending FlightAware ADS-B
08:32PM 47.7334 -122.2151 277° West 250 288 2,400 -600 Level FlightAware ADS-B
08:32PM 47.7362 -122.2480 277° West 249 287 2,200 -600 Descending FlightAware ADS-B
08:32PM 47.7363 -122.2490 277° West 250 288 2,200 -286 Level FlightAware ADS-B
08:33PM 47.7390 -122.2809 277° West 255 293 2,100 -171 Descending FlightAware ADS-B
08:33PM 47.7414 -122.3110 277° West 255 293 2,100  Level FlightAware ADS-B
08:33PM 47.7418 -122.3186 274° West 248 285 2,100  Level FlightAware ADS-B
08:33PM 47.7411 -122.3310 262° West 244 281 2,100  Level FlightAware ADS-B
08:33PM 47.7373 -122.3480 248° West 231 266 2,100 207 Level FlightAware ADS-B
08:34PM 47.7300 -122.3730 246° West 224 258 2,200  Climbing FlightAware ADS-B
08:34PM 47.7176 -122.4140 246° West 202 232 2,100  Descending FlightAware ADS-B
08:35PM 47.6794 -122.4300 232° Southwest 203 234 2,200  Climbing FlightAware ADS-B
08:35PM 47.6662 -122.4180 150° Southeast 181 208 2,100 -171 Descending FlightAware ADS-B
08:36PM 47.6541 -122.4080 149° Southeast 180 207 2,100  Level FlightAware ADS-B
08:36PM 47.6468 -122.4020 150° Southeast 176 203 2,100  Level FlightAware ADS-B
08:36PM 47.6387 -122.3945 149° Southeast 172 198 2,100  Level FlightAware ADS-B
08:36PM 47.6358 -122.3920 149° Southeast 173 199 2,100 -429 Level FlightAware ADS-B
08:36PM 47.6290 -122.3860 150° Southeast 171 197 2,000 -750 Descending FlightAware ADS-B
08:36PM 47.6254 -122.3830 150° Southeast 171 197 1,900 -923 Descending FlightAware ADS-B
08:37PM 47.6112 -122.3711 150° Southeast 168 193 1,600 -923 Descending FlightAware ADS-B
08:37PM 47.6075 -122.3680 150° Southeast 167 192 1,500 -1,200 Descending FlightAware ADS-B
08:37PM 47.6014 -122.3628 150° Southeast 167 192 1,300 -764 Descending FlightAware ADS-B
08:38PM 47.5717 -122.3400 150° Southeast 167 192 800 -696 Descending Seattle Center
08:38PM 47.5589 -122.3269 145° Southeast 168 193 500 -783 Descending Seattle Center

Login

Don't have an account? Register now (free) for customized features, flight alerts, and more!